Back to catalog

TURKSAT 4A

AliveCommunicationsGEO
NORAD 39522·PAYLOAD·🇹🇷 Turkey

Launched Feb 14, 2014 from Baikonur Cosmodrome

Loading…

TLE

FreshSource: Space-Track

Epoch: Sep 14, 2026, 14:00 UTC

1 39522U 14007A   26257.58342105  .00000138  00000-0  00000-0 0  9995
2 39522   0.0750 287.1872 0003391 317.5165   0.8807  1.00270547 45866

Track TURKSAT 4A in real time with AllMySat

Download on the App Store